Daviess Cnty AP, Washington,, IN

10:58 AM EST on December 15, 2019 (GMT -0500)
Daviess County

Weather History for KDCY - May, 2019

Change the Weather History Date:

Saturday, May 11, 2019

  Actual Average (KLWV) Record (KLWV)
Temperature  
Mean Temperature 52 °F -  
Max Temperature 60 °F 73 °F 91 °F (2018)
Min Temperature 44 °F 53 °F 44 °F (2019)
Degree Days  
Heating Degree Days 13    
Growing Degree Days 2 (Base 50)    
Moisture  
Dew Point 47 °F    
Average Humidity 86    
Maximum Humidity 100    
Minimum Humidity 63    
Precipitation  
Precipitation 0.24 in - - ()
Sea Level Pressure  
Sea Level Pressure 29.97 in    
Wind  
Wind Speed 5 mph (NE)    
Max Wind Speed 15 mph    
Max Gust Speed 18 mph    
Visibility 9 miles    
Events Rain    
Averages and records for this station are not official NWS values.
T = Trace of Precipitation, MM = Missing Value Source: NWS Daily Summary

Daily Weather History Graph

Daily Weather History Graph

Search for Another Location

Airport or City:

Astronomy

May. 11, 2019 Rise Set
Actual Time 6:40 AM EDT 8:49 PM EDT
Civil Twilight 6:10 AM EDT 9:19 PM EDT
Nautical Twilight 5:34 AM EDT 9:55 PM EDT
Astronomical Twilight 4:55 AM EDT 10:35 PM EDT
Moon 12:48 PM EDT (5/11) 2:30 AM EDT (5/11)
Length of Visible Light 15h 08m
Length of Day
14h 09m
Waxing Crescent, 46% of the Moon is Illuminated
May 11
Waxing Crescent
May 11
First Quarter
May 18
Full
May 26
Last Quarter
Jun 3
New

Hourly Weather History & Observations

Time (EDT) Temp. Windchill Dew Point Humidity Pressure Visibility Wind Dir Wind Speed Gust Speed Precip Events Conditions
12:15 AM 48.6 °F - 43.7 °F 83% 30.15 in 10.0 mi Calm Calm - N/A   Clear
12:35 AM 47.5 °F - 44.4 °F 89% 30.14 in 10.0 mi Calm Calm - N/A   Clear
12:55 AM 48.0 °F - 44.6 °F 88% 30.13 in 10.0 mi NNE 3.5 mph - N/A   Clear
1:15 AM 48.2 °F - 44.1 °F 86% 30.12 in 10.0 mi NE 3.5 mph - N/A   Clear
1:35 AM 48.4 °F - 43.5 °F 83% 30.12 in 10.0 mi NE 3.5 mph - N/A   Clear
1:55 AM 47.5 °F - 43.7 °F 87% 30.12 in 10.0 mi ENE 3.5 mph - N/A   Clear
2:15 AM 47.1 °F - 44.1 °F 89% 30.12 in 10.0 mi ENE 3.5 mph - N/A   Clear
2:35 AM 46.9 °F - 43.7 °F 88% 30.12 in 10.0 mi NE 3.5 mph - N/A   Clear
2:55 AM 46.8 °F - 43.3 °F 88% 30.11 in 10.0 mi Calm Calm - N/A   Clear
3:15 AM 45.7 °F 44.4 °F 44.6 °F 96% 30.10 in 10.0 mi NE 3.5 mph - N/A   Clear
3:35 AM 45.9 °F 44.6 °F 43.9 °F 93% 30.09 in 10.0 mi NE 3.5 mph - N/A   Clear
3:55 AM 45.9 °F - 43.3 °F 91% 30.08 in 10.0 mi Calm Calm - N/A   Clear
4:15 AM 44.6 °F - 44.2 °F 99% 30.09 in 10.0 mi Calm Calm - N/A   Scattered Clouds
4:35 AM 44.6 °F - 44.2 °F 99% 30.10 in 10.0 mi Calm Calm - N/A   Mostly Cloudy
4:55 AM 46.0 °F - 45.7 °F 99% 30.10 in 10.0 mi Calm Calm - N/A   Overcast
5:15 AM 46.4 °F 45.2 °F 45.5 °F 97% 30.10 in 10.0 mi North 3.5 mph - N/A   Overcast
5:35 AM 46.0 °F 43.9 °F 45.5 °F 98% 30.09 in 10.0 mi NNE 4.6 mph - N/A   Overcast
5:55 AM 46.0 °F 43.9 °F 45.5 °F 98% 30.08 in 10.0 mi NNE 4.6 mph - N/A   Overcast
6:15 AM 46.4 °F 44.3 °F 44.8 °F 94% 30.07 in 10.0 mi NE 4.6 mph - N/A   Overcast
6:35 AM 46.4 °F 44.3 °F 45.5 °F 97% 30.06 in 10.0 mi NE 4.6 mph - N/A   Overcast
6:55 AM 46.8 °F - 44.8 °F 93% 30.06 in 10.0 mi ENE 4.6 mph - N/A   Overcast
7:15 AM 47.3 °F - 44.8 °F 91% 30.07 in 10.0 mi NE 5.8 mph - N/A   Overcast
7:35 AM 47.8 °F - 44.1 °F 87% 30.06 in 10.0 mi NE 8.1 mph - N/A   Overcast
7:55 AM 48.2 °F - 43.9 °F 85% 30.05 in 10.0 mi ENE 6.9 mph - N/A   Overcast
8:15 AM 49.1 °F - 44.4 °F 84% 30.05 in 10.0 mi ENE 8.1 mph - N/A   Overcast
8:35 AM 50.0 °F - 43.7 °F 79% 30.04 in 10.0 mi ENE 11.5 mph - N/A   Overcast
8:55 AM 52.7 °F - 44.4 °F 73% 30.04 in 10.0 mi East 11.5 mph - N/A   Mostly Cloudy
9:15 AM 52.5 °F - 43.5 °F 71% 30.03 in 10.0 mi East 15.0 mph - N/A   Overcast
9:35 AM 52.9 °F - 43.9 °F 71% 30.03 in 10.0 mi East 15.0 mph 18.4 mph N/A   Overcast
9:55 AM 52.9 °F - 44.4 °F 73% 30.03 in 10.0 mi East 10.4 mph - N/A   Overcast
10:15 AM 53.8 °F - 44.6 °F 71% 30.02 in 10.0 mi East 11.5 mph - N/A   Overcast
10:35 AM 54.5 °F - 45.1 °F 71% 30.01 in 10.0 mi East 11.5 mph - N/A   Overcast
10:55 AM 55.2 °F - 45.7 °F 70% 30.00 in 10.0 mi East 9.2 mph - N/A   Overcast
11:15 AM 56.5 °F - 45.9 °F 68% 30.00 in 10.0 mi East 8.1 mph - N/A   Overcast
11:35 AM 57.4 °F - 46.9 °F 68% 29.98 in 10.0 mi East 11.5 mph - N/A   Mostly Cloudy
11:55 AM 58.6 °F - 46.9 °F 65% 29.99 in 10.0 mi ESE 6.9 mph - N/A   Scattered Clouds
12:15 PM 59.2 °F - 47.3 °F 65% 29.98 in 10.0 mi East 5.8 mph - N/A   Mostly Cloudy
12:35 PM 59.9 °F - 48.7 °F 67% 29.97 in 10.0 mi ENE 8.1 mph - N/A   Overcast
12:55 PM 60.8 °F - 48.6 °F 64% 29.96 in 10.0 mi ESE 4.6 mph - N/A   Overcast
1:15 PM 59.2 °F - 46.8 °F 63% 29.97 in 10.0 mi Calm Calm - N/A   Overcast
1:35 PM 59.4 °F - 47.7 °F 65% 29.96 in 10.0 mi NNW 3.5 mph - N/A   Overcast
1:55 PM 59.7 °F - 48.6 °F 67% 29.94 in 10.0 mi North 9.2 mph - N/A   Overcast
2:15 PM 58.6 °F - 47.7 °F 67% 29.94 in 10.0 mi North 9.2 mph - N/A   Overcast
2:35 PM 57.6 °F - 47.3 °F 69% 29.95 in 10.0 mi North 11.5 mph - N/A   Overcast
2:55 PM 57.0 °F - 46.8 °F 69% 29.94 in 10.0 mi North 10.4 mph - N/A   Overcast
3:15 PM 56.3 °F - 47.3 °F 72% 29.93 in 10.0 mi North 11.5 mph 16.1 mph N/A Rain Rain
3:35 PM 55.6 °F - 47.5 °F 74% 29.91 in 10.0 mi NNE 11.5 mph - N/A Rain Rain
3:55 PM 54.5 °F - 48.4 °F 80% 29.88 in 10.0 mi NNE 10.4 mph - N/A Rain Light Rain
4:15 PM 54.5 °F - 49.8 °F 84% 29.86 in 10.0 mi NNE 9.2 mph - 0.01 in Rain Light Rain
4:35 PM 54.5 °F - 49.6 °F 84% 29.85 in 10.0 mi NNE 8.1 mph - 0.01 in Rain Rain
4:55 PM 55.4 °F - 50.4 °F 83% 29.84 in 10.0 mi NNE 6.9 mph - 0.01 in   Overcast
5:15 PM 55.4 °F - 50.5 °F 84% 29.82 in 10.0 mi NE 6.9 mph - N/A Rain Rain
5:35 PM 55.6 °F - 51.8 °F 87% 29.83 in 10.0 mi NNW 6.9 mph - N/A Rain Light Rain
5:55 PM 54.0 °F - 53.4 °F 98% 29.84 in 7.0 mi NNW 9.2 mph - 0.02 in Rain Rain
6:15 PM 53.4 °F - 53.1 °F 99% 29.85 in 5.0 mi NNW 11.5 mph - 0.02 in Rain Light Rain
6:35 PM 52.0 °F - 51.8 °F 99% 29.86 in 4.0 mi NNW 10.4 mph - 0.06 in Rain Rain
6:55 PM 51.8 °F - 51.4 °F 99% 29.85 in 5.0 mi North 10.4 mph - 0.09 in Rain Rain
7:15 PM 51.8 °F - 51.4 °F 99% 29.84 in 7.0 mi North 13.8 mph 18.4 mph 0.01 in Rain Rain
7:35 PM 52.5 °F - 52.2 °F 99% 29.84 in 10.0 mi NNE 8.1 mph - 0.02 in Rain Rain
7:55 PM 52.7 °F - 52.5 °F 99% 29.83 in 7.0 mi NE 11.5 mph - 0.02 in   Drizzle
8:15 PM 52.7 °F - 52.7 °F 100% 29.83 in 5.0 mi NNE 6.9 mph - 0.01 in Rain Rain
8:35 PM 51.8 °F - 51.8 °F 100% 29.82 in 5.0 mi NNE 8.1 mph - 0.04 in Rain Light Rain
8:55 PM 51.8 °F - 51.6 °F 99% 29.81 in 7.0 mi NNE 6.9 mph - 0.06 in Rain Heavy Rain
9:15 PM 51.8 °F - 51.8 °F 100% 29.80 in 10.0 mi NNE 6.9 mph - N/A   Drizzle
9:35 PM 52.0 °F - 51.8 °F 99% 29.80 in 7.0 mi North 5.8 mph - 0.01 in   Drizzle
9:55 PM 51.8 °F - 51.6 °F 99% 29.81 in 4.0 mi NNE 4.6 mph - 0.02 in   Heavy Drizzle
10:15 PM 51.8 °F - 51.8 °F 100% 29.81 in 5.0 mi NNE 4.6 mph - 0.01 in   Drizzle
10:35 PM 51.8 °F - 51.8 °F 100% 29.81 in 7.0 mi North 6.9 mph - 0.01 in Rain Rain
10:55 PM 51.8 °F - 51.8 °F 100% 29.81 in 4.0 mi North 6.9 mph - 0.01 in   Light Drizzle
11:15 PM 51.8 °F - 51.8 °F 100% 29.81 in 5.0 mi North 5.8 mph - N/A   Light Drizzle
11:35 PM 51.8 °F - 51.6 °F 99% 29.81 in 5.0 mi North 6.9 mph - 0.01 in   Overcast
11:55 PM 51.8 °F - 51.3 °F 98% 29.80 in 5.0 mi NNE 9.2 mph - 0.01 in   Overcast